Location: Delettes
(50.6178°N, 2.2123°E)
Time: 01:55:52
(UTC+00:00)

NOSS 3-1 (A) - Pass Details

Date: 27 February 2020
Orbit: 761 x 1452 km, 63.4° (Epoch: 26 March)

Event Time Altitude Azimuth Distance (km) Brightness Sun altitude
Rises 19:15:14 0° 250° (WSW) 3,377 7.4 -17.7°
Reaches altitude 10° 19:17:39 10° 256° (WSW) 2,514 6.7 -18.1°
Maximum altitude 19:23:14 46° 330° (NNW) 1,285 4.4 -19.0°
Drops below altitude 10° 19:29:50 10° 42° (NE) 2,956 5.7 -20.0°
Enters shadow 19:30:26 - 44° (NE) 3,165 5.9 -20.1°
